TimeEST,TemperatureF,Dew PointF,Humidity,Sea Level PressureIn,VisibilityMPH,Wind Direction,Wind SpeedMPH,Gust SpeedMPH,PrecipitationIn,Events,Conditions,WindDirDegrees,DateUTC
12:53 AM,46.0,25.0,44,29.95,10.0,SSW,11.5,20.7,N/A,,Clear,200,2013-01-20 05:53:00
1:53 AM,46.0,26.1,46,29.94,10.0,SSW,13.8,21.9,N/A,,Clear,210,2013-01-20 06:53:00
2:53 AM,45.0,26.1,48,29.94,10.0,SSW,9.2,19.6,N/A,,Clear,210,2013-01-20 07:53:00
3:53 AM,45.0,27.0,49,29.94,10.0,SSW,12.7,21.9,N/A,,Clear,200,2013-01-20 08:53:00
4:53 AM,44.1,27.0,51,29.94,10.0,SSW,12.7,18.4,N/A,,Clear,210,2013-01-20 09:53:00
5:53 AM,44.1,28.0,53,29.96,10.0,SW,9.2,19.6,N/A,,Overcast,230,2013-01-20 10:53:00
6:53 AM,44.1,30.0,58,29.99,10.0,SW,9.2,19.6,N/A,,Overcast,230,2013-01-20 11:53:00
7:53 AM,43.0,25.0,49,30.01,10.0,WSW,11.5,23.0,N/A,,Partly Cloudy,240,2013-01-20 12:53:00
8:53 AM,39.9,17.1,40,30.07,10.0,West,15.0,27.6,N/A,,Clear,280,2013-01-20 13:53:00
9:53 AM,39.0,17.1,41,30.12,10.0,West,17.3,25.3,N/A,,Clear,270,2013-01-20 14:53:00
10:53 AM,37.0,8.1,30,30.15,10.0,West,16.1,26.5,N/A,,Clear,270,2013-01-20 15:53:00
11:53 AM,37.9,10.0,32,30.16,10.0,West,13.8,24.2,N/A,,Clear,270,2013-01-20 16:53:00
12:53 PM,37.9,10.9,33,30.14,10.0,West,13.8,25.3,N/A,,Clear,280,2013-01-20 17:53:00
1:53 PM,37.9,12.9,36,30.16,10.0,West,10.4,24.2,N/A,,Clear,280,2013-01-20 18:53:00
2:53 PM,37.0,10.9,34,30.15,10.0,West,10.4,19.6,N/A,,Clear,260,2013-01-20 19:53:00
3:53 PM,37.9,10.9,33,30.15,10.0,West,11.5,-,N/A,,Clear,280,2013-01-20 20:53:00
4:53 PM,36.0,9.0,33,30.16,10.0,West,11.5,-,N/A,,Clear,280,2013-01-20 21:53:00
5:53 PM,34.0,7.0,32,30.18,10.0,West,8.1,-,N/A,,Clear,280,2013-01-20 22:53:00
6:53 PM,32.0,10.0,40,30.20,10.0,WNW,10.4,-,N/A,,Clear,290,2013-01-20 23:53:00
7:53 PM,30.0,12.0,47,30.20,10.0,NW,9.2,-,N/A,,Mostly Cloudy,310,2013-01-21 00:53:00
8:53 PM,30.0,12.0,47,30.20,10.0,NW,6.9,-,N/A,,Partly Cloudy,310,2013-01-21 01:53:00
9:53 PM,28.0,12.0,51,30.19,10.0,WNW,3.5,-,N/A,,Mostly Cloudy,300,2013-01-21 02:53:00
10:53 PM,27.0,12.0,53,30.20,10.0,Calm,Calm,-,N/A,,Mostly Cloudy,0,2013-01-21 03:53:00
11:53 PM,27.0,12.9,56,30.19,10.0,Calm,Calm,-,N/A,,Overcast,0,2013-01-21 04:53:00